CFG6CV EDDS-LEPA

Flight info

Callsign CFG6CV
Flight time 1h 51m
Altitude 31000
Route ROTWE7H ROTWE Y126 TUBLO N850 NATOR DCT LUTIX DCT BENOT/N0449F350 DCT NEMOS DCT GEVEA DCT INCUS DCT BALSI DCT RETNO DCT TUPOX DCT MTG DCT DIVKO DCT VATIR DCT PIVUS DCT BODEQ DCT VERSO L129 LUNIK
Aircraft A321/M-SDE3GHIJ1LORVWXYZ/LB1D1

Departure

Time 2026-05-01 09:22
Airport Stuttgart Airport (EDDS)

Arrival

Time 2026-05-01 11:13
Airport Palma de Mallorca Airport (LEPA)
Time Latitude Longitude Altitude Speed Heading
2026-05-01 08:48 48.68939 9.19646 1315 ft 0 kts 344°
2026-05-01 09:13 48.68917 9.19656 1312 ft 4 kts 343°
2026-05-01 09:13 48.68890 9.19667 1310 ft 4 kts 349°
2026-05-01 09:13 48.68866 9.19668 1309 ft 4 kts 33°
2026-05-01 09:14 48.68859 9.19659 1309 ft 1 kts 74°
2026-05-01 09:17 48.68866 9.19696 1308 ft 10 kts 74°
2026-05-01 09:17 48.68882 9.19854 1303 ft 14 kts 102°
2026-05-01 09:17 48.68738 9.19958 1292 ft 15 kts 161°
2026-05-01 09:18 48.68712 9.19971 1291 ft 2 kts 161°
2026-05-01 09:18 48.68678 9.19988 1288 ft 0 kts 162°
2026-05-01 09:21 48.68587 9.20085 1283 ft 14 kts 90°
2026-05-01 09:21 48.68591 9.20107 1282 ft 0 kts 73°
2026-05-01 09:21 48.68654 9.20452 1274 ft 79 kts 74°
2026-05-01 09:22 48.69212 9.23396 1702 ft 180 kts 77°
2026-05-01 09:22 48.69928 9.27188 3264 ft 201 kts 77°
2026-05-01 09:23 48.70327 9.29314 3440 ft 221 kts 77°
2026-05-01 09:23 48.71180 9.33950 4515 ft 230 kts 84°
2026-05-01 09:24 48.69886 9.38170 5462 ft 235 kts 137°
2026-05-01 09:24 48.68502 9.39533 6000 ft 241 kts 155°
2026-05-01 09:24 48.65146 9.39934 7332 ft 254 kts 192°
2026-05-01 09:25 48.62162 9.36886 8409 ft 282 kts 233°
2026-05-01 09:25 48.61249 9.31038 9612 ft 302 kts 278°
2026-05-01 09:26 48.61520 9.27887 10290 ft 304 kts 267°
2026-05-01 09:26 48.59633 9.22158 10939 ft 329 kts 229°
2026-05-01 09:26 48.58172 9.19337 11062 ft 352 kts 231°
2026-05-01 09:27 48.55198 9.13106 11884 ft 374 kts 233°
2026-05-01 09:27 48.53710 9.09861 12518 ft 377 kts 234°
2026-05-01 09:27 48.52216 9.06591 13150 ft 381 kts 234°
2026-05-01 09:28 48.50696 9.03279 13758 ft 385 kts 234°
2026-05-01 09:28 48.49157 8.99958 14201 ft 388 kts 234°
2026-05-01 09:28 48.47601 8.96628 14330 ft 389 kts 233°
2026-05-01 09:28 48.46027 8.93280 14789 ft 392 kts 233°
2026-05-01 09:29 48.42850 8.86544 15958 ft 397 kts 233°
2026-05-01 09:29 48.41243 8.83136 16508 ft 400 kts 233°
2026-05-01 09:30 48.38000 8.76246 17583 ft 405 kts 234°
2026-05-01 09:30 48.36389 8.72825 18108 ft 408 kts 233°
2026-05-01 09:30 48.33082 8.65829 19064 ft 414 kts 233°
2026-05-01 09:31 48.31397 8.62283 19526 ft 416 kts 234°
2026-05-01 09:31 48.29682 8.58675 19982 ft 419 kts 233°
2026-05-01 09:31 48.26304 8.51564 20840 ft 424 kts 234°
2026-05-01 09:32 48.24584 8.47955 21254 ft 427 kts 234°
2026-05-01 09:32 48.21101 8.40683 22104 ft 432 kts 234°
2026-05-01 09:32 48.19333 8.37007 22541 ft 435 kts 234°
2026-05-01 09:33 48.17427 8.33491 22933 ft 438 kts 226°
2026-05-01 09:33 48.15144 8.30436 23345 ft 440 kts 216°
2026-05-01 09:33 48.10030 8.25412 24110 ft 445 kts 212°
2026-05-01 09:34 48.07423 8.22892 24448 ft 447 kts 212°
2026-05-01 09:34 48.04805 8.20360 24789 ft 449 kts 213°
2026-05-01 09:34 47.99528 8.15265 25443 ft 454 kts 212°
2026-05-01 09:35 47.96861 8.12704 25773 ft 456 kts 212°
2026-05-01 09:35 47.91493 8.07564 26410 ft 461 kts 212°
2026-05-01 09:35 47.88784 8.04981 26735 ft 463 kts 212°
2026-05-01 09:36 47.86064 8.02387 27050 ft 465 kts 212°
2026-05-01 09:36 47.83332 7.99782 27357 ft 467 kts 212°
2026-05-01 09:36 47.80585 7.97164 27651 ft 469 kts 212°
2026-05-01 09:36 47.77830 7.94541 27970 ft 471 kts 212°
2026-05-01 09:37 47.75065 7.91913 28253 ft 473 kts 212°
2026-05-01 09:37 47.69477 7.86622 28838 ft 478 kts 212°
2026-05-01 09:37 47.66665 7.83963 29132 ft 479 kts 212°
2026-05-01 09:38 47.61082 7.78694 29909 ft 478 kts 212°
2026-05-01 09:38 47.58283 7.76051 30308 ft 477 kts 212°
2026-05-01 09:38 47.55482 7.73408 30629 ft 476 kts 212°
2026-05-01 09:39 47.49888 7.68158 31305 ft 475 kts 212°
2026-05-01 09:39 47.47099 7.65546 31650 ft 474 kts 212°
2026-05-01 09:39 47.44315 7.62937 31984 ft 473 kts 212°
2026-05-01 09:40 47.41534 7.60331 32315 ft 472 kts 212°
2026-05-01 09:40 47.36021 7.55179 32980 ft 471 kts 212°
2026-05-01 09:40 47.33252 7.52598 33325 ft 470 kts 212°
2026-05-01 09:41 47.30488 7.50027 33663 ft 469 kts 212°
2026-05-01 09:41 47.24970 7.44909 34346 ft 467 kts 211°
2026-05-01 09:41 47.22232 7.42373 34711 ft 464 kts 211°
2026-05-01 09:42 47.19504 7.39843 35039 ft 462 kts 212°
2026-05-01 09:42 47.16933 7.37033 35275 ft 461 kts 221°
2026-05-01 09:43 47.08713 7.22682 35318 ft 458 kts 231°
2026-05-01 09:43 47.04732 7.15391 35332 ft 458 kts 231°
2026-05-01 09:44 46.98748 7.04443 35332 ft 458 kts 231°
2026-05-01 09:45 46.94766 6.97164 35327 ft 457 kts 231°
2026-05-01 09:45 46.88262 6.87143 35329 ft 452 kts 218°
2026-05-01 09:46 46.83413 6.81378 35329 ft 452 kts 218°
2026-05-01 09:46 46.78541 6.75577 35330 ft 452 kts 218°
2026-05-01 09:47 46.74487 6.70758 35331 ft 451 kts 218°
2026-05-01 09:47 46.69612 6.64987 35329 ft 451 kts 218°
2026-05-01 09:48 46.64733 6.59223 35331 ft 451 kts 218°
2026-05-01 09:48 46.59857 6.53469 35331 ft 451 kts 218°
2026-05-01 09:49 46.54977 6.47726 35331 ft 451 kts 218°
2026-05-01 09:49 46.50104 6.42009 35323 ft 449 kts 218°
2026-05-01 09:50 46.45247 6.36327 35322 ft 448 kts 217°
2026-05-01 09:50 46.40386 6.30656 35326 ft 448 kts 217°
2026-05-01 09:51 46.35536 6.25010 35326 ft 446 kts 217°
2026-05-01 09:51 46.30721 6.19418 35329 ft 446 kts 217°
2026-05-01 09:52 46.25555 6.14420 35329 ft 444 kts 203°
2026-05-01 09:52 46.19707 6.11959 35332 ft 441 kts 187°
2026-05-01 09:53 46.13645 6.10632 35328 ft 440 kts 188°
2026-05-01 09:53 46.07584 6.09276 35302 ft 440 kts 188°
2026-05-01 09:54 46.01529 6.07924 35301 ft 440 kts 188°
2026-05-01 09:54 45.95464 6.06581 35302 ft 441 kts 188°
2026-05-01 09:55 45.89404 6.05242 35301 ft 441 kts 188°
2026-05-01 09:55 45.83345 6.03903 35301 ft 441 kts 188°
2026-05-01 09:56 45.77277 6.02566 35296 ft 441 kts 188°
2026-05-01 09:56 45.71205 6.01239 35293 ft 441 kts 188°
2026-05-01 09:57 45.65182 5.99916 35302 ft 441 kts 188°
2026-05-01 09:57 45.59121 5.98572 35302 ft 442 kts 189°
2026-05-01 09:58 45.53038 5.97245 35299 ft 443 kts 189°
2026-05-01 09:58 45.46952 5.95898 35296 ft 443 kts 190°
2026-05-01 09:59 45.40904 5.94146 35293 ft 444 kts 194°
2026-05-01 09:59 45.34863 5.92122 35293 ft 447 kts 195°
2026-05-01 10:00 45.28803 5.90132 35296 ft 448 kts 194°
2026-05-01 10:00 45.22710 5.88237 35295 ft 448 kts 194°
2026-05-01 10:01 45.16596 5.86365 35296 ft 450 kts 194°
2026-05-01 10:01 45.10474 5.84480 35302 ft 450 kts 194°
2026-05-01 10:02 45.04390 5.82600 35302 ft 450 kts 194°
2026-05-01 10:02 44.98250 5.80710 35304 ft 452 kts 195°
2026-05-01 10:03 44.92099 5.78804 35303 ft 453 kts 195°
2026-05-01 10:03 44.85939 5.76912 35305 ft 453 kts 194°
2026-05-01 10:04 44.79771 5.75037 35308 ft 454 kts 195°
2026-05-01 10:04 44.73596 5.73148 35306 ft 454 kts 195°
2026-05-01 10:05 44.67423 5.71264 35309 ft 454 kts 195°
2026-05-01 10:05 44.61271 5.69398 35308 ft 451 kts 195°
2026-05-01 10:06 44.55143 5.67546 35310 ft 450 kts 195°
2026-05-01 10:06 44.49019 5.65687 35309 ft 450 kts 195°
2026-05-01 10:07 44.42898 5.63828 35309 ft 450 kts 195°
2026-05-01 10:07 44.36828 5.61710 35308 ft 447 kts 203°
2026-05-01 10:08 44.28163 5.56968 35306 ft 447 kts 204°
2026-05-01 10:09 44.22369 5.53800 35311 ft 448 kts 204°
2026-05-01 10:09 44.16569 5.50626 35311 ft 448 kts 204°
2026-05-01 10:10 44.10729 5.47443 35305 ft 448 kts 204°
2026-05-01 10:10 44.02046 5.42732 35304 ft 449 kts 204°
2026-05-01 10:11 43.96222 5.39577 35299 ft 449 kts 204°
2026-05-01 10:11 43.90396 5.36420 35298 ft 449 kts 204°
2026-05-01 10:12 43.84579 5.33270 35304 ft 448 kts 204°
2026-05-01 10:13 43.75897 5.28600 35308 ft 445 kts 204°
2026-05-01 10:13 43.70120 5.25499 35299 ft 445 kts 204°
2026-05-01 10:14 43.61458 5.20850 35309 ft 445 kts 204°
2026-05-01 10:14 43.55675 5.17763 35297 ft 445 kts 204°
2026-05-01 10:15 43.49935 5.14693 35295 ft 445 kts 204°
2026-05-01 10:15 43.44150 5.11612 35300 ft 446 kts 204°
2026-05-01 10:16 43.38433 5.08334 35300 ft 443 kts 212°
2026-05-01 10:17 43.30790 5.01296 35299 ft 441 kts 217°
2026-05-01 10:17 43.23185 4.94143 35297 ft 441 kts 217°
2026-05-01 10:18 43.15611 4.87040 35308 ft 441 kts 217°
2026-05-01 10:19 43.10546 4.82307 35303 ft 441 kts 217°
2026-05-01 10:19 43.05469 4.77610 35306 ft 441 kts 213°
2026-05-01 10:20 42.97417 4.71474 35307 ft 442 kts 212°
2026-05-01 10:20 42.92041 4.67397 35299 ft 442 kts 212°
2026-05-01 10:21 42.83960 4.61302 35304 ft 442 kts 212°
2026-05-01 10:22 42.75879 4.55209 35304 ft 441 kts 212°
2026-05-01 10:23 42.67815 4.49148 35303 ft 441 kts 211°
2026-05-01 10:23 42.59799 4.43150 35297 ft 441 kts 212°
2026-05-01 10:24 42.49034 4.35115 35296 ft 441 kts 212°
2026-05-01 10:25 42.38274 4.27103 35292 ft 441 kts 211°
2026-05-01 10:26 42.32889 4.23117 35288 ft 441 kts 211°
2026-05-01 10:27 42.22144 4.15195 35292 ft 438 kts 211°
2026-05-01 10:28 42.14160 4.09312 35283 ft 438 kts 211°
2026-05-01 10:28 42.06154 4.03434 35281 ft 437 kts 211°
2026-05-01 10:29 41.98145 3.97565 35277 ft 437 kts 211°
2026-05-01 10:30 41.86738 3.92070 35273 ft 442 kts 192°
2026-05-01 10:31 41.74630 3.89264 35265 ft 441 kts 193°
2026-05-01 10:32 41.66579 3.87407 35259 ft 440 kts 192°
2026-05-01 10:33 41.54507 3.84638 35260 ft 440 kts 192°
2026-05-01 10:34 41.45460 3.82573 35254 ft 440 kts 192°
2026-05-01 10:34 41.39419 3.81189 35255 ft 440 kts 192°
2026-05-01 10:35 41.30387 3.79129 35239 ft 439 kts 192°
2026-05-01 10:35 41.24367 3.77761 35242 ft 439 kts 192°
2026-05-01 10:36 41.15399 3.75598 35235 ft 437 kts 198°
2026-05-01 10:37 41.09717 3.72799 35232 ft 435 kts 203°
2026-05-01 10:37 41.01243 3.68440 35238 ft 436 kts 202°
2026-05-01 10:38 40.95577 3.65543 35228 ft 436 kts 203°
2026-05-01 10:38 40.89923 3.62636 35239 ft 436 kts 203°
2026-05-01 10:39 40.84259 3.59737 35214 ft 436 kts 202°
2026-05-01 10:39 40.78594 3.56850 35231 ft 436 kts 202°
2026-05-01 10:40 40.72940 3.53959 35231 ft 436 kts 202°
2026-05-01 10:40 40.67284 3.51071 35228 ft 436 kts 202°
2026-05-01 10:41 40.61619 3.48188 35229 ft 436 kts 202°
2026-05-01 10:42 40.53162 3.43911 35225 ft 436 kts 202°
2026-05-01 10:42 40.47497 3.41059 35223 ft 436 kts 201°
2026-05-01 10:43 40.41546 3.39486 35217 ft 440 kts 184°
2026-05-01 10:43 40.35403 3.39738 35162 ft 441 kts 179°
2026-05-01 10:43 40.32337 3.39919 34375 ft 445 kts 179°
2026-05-01 10:44 40.29205 3.40099 33182 ft 455 kts 179°
2026-05-01 10:44 40.26023 3.40278 32137 ft 461 kts 179°
2026-05-01 10:44 40.22796 3.40459 31140 ft 466 kts 179°
2026-05-01 10:44 40.19543 3.40642 30136 ft 470 kts 179°
2026-05-01 10:45 40.16265 3.40827 29023 ft 473 kts 179°
2026-05-01 10:45 40.12974 3.41011 28111 ft 472 kts 179°
2026-05-01 10:45 40.09697 3.41194 27243 ft 471 kts 179°
2026-05-01 10:45 40.06429 3.41378 26494 ft 468 kts 179°
2026-05-01 10:46 40.03180 3.41560 25803 ft 465 kts 178°
2026-05-01 10:46 39.99999 3.41742 25135 ft 461 kts 178°
2026-05-01 10:46 39.96807 3.41925 24457 ft 458 kts 179°
2026-05-01 10:46 39.93636 3.42110 23805 ft 455 kts 179°
2026-05-01 10:47 39.90483 3.42290 23058 ft 451 kts 179°
2026-05-01 10:47 39.87367 3.42464 22343 ft 447 kts 179°
2026-05-01 10:47 39.84276 3.42634 21656 ft 442 kts 179°
2026-05-01 10:47 39.81213 3.42801 20985 ft 438 kts 179°
2026-05-01 10:48 39.78178 3.42965 20338 ft 434 kts 179°
2026-05-01 10:48 39.75191 3.43126 19996 ft 423 kts 179°
2026-05-01 10:48 39.72307 3.43288 19871 ft 406 kts 179°
2026-05-01 10:48 39.69539 3.43436 19744 ft 390 kts 181°
2026-05-01 10:49 39.66922 3.43007 19626 ft 373 kts 197°
2026-05-01 10:49 39.64599 3.41702 19502 ft 356 kts 214°
2026-05-01 10:49 39.62730 3.39729 19381 ft 340 kts 230°
2026-05-01 10:49 39.61384 3.37298 19246 ft 325 kts 243°
2026-05-01 10:50 39.60576 3.34635 18991 ft 311 kts 257°
2026-05-01 10:50 39.60286 3.31888 18313 ft 305 kts 272°
2026-05-01 10:50 39.60514 3.29194 17578 ft 299 kts 284°
2026-05-01 10:50 39.61195 3.26665 16846 ft 296 kts 297°
2026-05-01 10:51 39.62276 3.24425 16211 ft 289 kts 309°
2026-05-01 10:51 39.63654 3.22630 15845 ft 274 kts 321°
2026-05-01 10:51 39.65237 3.21300 15837 ft 272 kts 332°
2026-05-01 10:51 39.67006 3.20401 15858 ft 275 kts 344°
2026-05-01 10:52 39.68887 3.19955 15863 ft 275 kts 352°
2026-05-01 10:52 39.70795 3.19749 15864 ft 275 kts 354°
2026-05-01 10:52 39.72689 3.19647 15862 ft 276 kts 356°
2026-05-01 10:52 39.74608 3.19576 15863 ft 276 kts 356°
2026-05-01 10:53 39.76533 3.19502 15869 ft 278 kts 357°
2026-05-01 10:53 39.78460 3.19459 15858 ft 277 kts
2026-05-01 10:53 39.80369 3.19900 15866 ft 279 kts 16°
2026-05-01 10:53 39.82152 3.20893 15866 ft 281 kts 28°
2026-05-01 10:54 39.83752 3.22369 15869 ft 282 kts 41°
2026-05-01 10:54 39.85078 3.24258 15869 ft 284 kts 53°
2026-05-01 10:54 39.86070 3.26483 15869 ft 285 kts 66°
2026-05-01 10:54 39.86672 3.28939 15869 ft 286 kts 79°
2026-05-01 10:55 39.86840 3.31513 15870 ft 287 kts 92°
2026-05-01 10:55 39.86565 3.34081 15869 ft 287 kts 105°
2026-05-01 10:55 39.85868 3.36507 15869 ft 287 kts 118°
2026-05-01 10:55 39.84784 3.38676 15869 ft 286 kts 131°
2026-05-01 10:56 39.83360 3.40482 15867 ft 286 kts 144°
2026-05-01 10:56 39.81670 3.41832 15869 ft 285 kts 157°
2026-05-01 10:56 39.79807 3.42671 15868 ft 283 kts 169°
2026-05-01 10:56 39.77865 3.43065 15869 ft 283 kts 176°
2026-05-01 10:57 39.75902 3.43250 15869 ft 282 kts 179°
2026-05-01 10:57 39.73937 3.43344 15867 ft 282 kts 180°
2026-05-01 10:57 39.71886 3.43109 15660 ft 313 kts 198°
2026-05-01 10:57 39.69866 3.41863 15423 ft 342 kts 218°
2026-05-01 10:58 39.68247 3.39492 15177 ft 356 kts 242°
2026-05-01 10:58 39.67124 3.36685 14925 ft 346 kts 244°
2026-05-01 10:58 39.66065 3.33928 14674 ft 337 kts 244°
2026-05-01 10:58 39.65041 3.31237 14432 ft 329 kts 244°
2026-05-01 10:59 39.64036 3.28602 14198 ft 322 kts 244°
2026-05-01 10:59 39.63053 3.26032 13955 ft 315 kts 245°
2026-05-01 10:59 39.62086 3.23518 13683 ft 308 kts 244°
2026-05-01 10:59 39.61136 3.21057 13428 ft 302 kts 244°
2026-05-01 11:00 39.60202 3.18641 13170 ft 299 kts 244°
2026-05-01 11:00 39.59266 3.16227 12904 ft 298 kts 244°
2026-05-01 11:00 39.58338 3.13838 12646 ft 296 kts 244°
2026-05-01 11:00 39.57415 3.11462 12337 ft 294 kts 244°
2026-05-01 11:01 39.56497 3.09096 11936 ft 293 kts 243°
2026-05-01 11:01 39.55582 3.06743 11527 ft 293 kts 243°
2026-05-01 11:01 39.54659 3.04376 11113 ft 294 kts 243°
2026-05-01 11:01 39.53743 3.02022 10774 ft 291 kts 243°
2026-05-01 11:02 39.52834 2.99679 10473 ft 288 kts 243°
2026-05-01 11:02 39.51942 2.97385 10151 ft 285 kts 243°
2026-05-01 11:02 39.51058 2.95116 9745 ft 285 kts 243°
2026-05-01 11:02 39.50151 2.92791 9288 ft 286 kts 243°
2026-05-01 11:03 39.49266 2.90519 8897 ft 285 kts 242°
2026-05-01 11:03 39.48374 2.88229 8475 ft 285 kts 242°
2026-05-01 11:03 39.47482 2.85944 8069 ft 284 kts 242°
2026-05-01 11:03 39.46586 2.83662 7647 ft 285 kts 241°
2026-05-01 11:04 39.45687 2.81373 7235 ft 285 kts 242°
2026-05-01 11:04 39.44793 2.79097 6840 ft 284 kts 241°
2026-05-01 11:04 39.43913 2.76805 6419 ft 284 kts 246°
2026-05-01 11:04 39.43373 2.74340 5969 ft 288 kts 260°
2026-05-01 11:05 39.43133 2.71742 5482 ft 290 kts 261°
2026-05-01 11:05 39.42906 2.69172 5176 ft 285 kts 262°
2026-05-01 11:05 39.42677 2.66606 4725 ft 286 kts 263°
2026-05-01 11:05 39.42450 2.64097 4560 ft 275 kts 263°
2026-05-01 11:06 39.42230 2.61692 4416 ft 265 kts 263°
2026-05-01 11:06 39.42017 2.59356 4169 ft 259 kts 263°
2026-05-01 11:06 39.41811 2.57076 4025 ft 250 kts 263°
2026-05-01 11:07 39.41416 2.52711 3877 ft 243 kts 264°
2026-05-01 11:07 39.41502 2.50562 3806 ft 239 kts 294°
2026-05-01 11:07 39.42520 2.48960 3770 ft 229 kts 334°
2026-05-01 11:07 39.43955 2.48645 3738 ft 198 kts 17°
2026-05-01 11:08 39.44942 2.49614 3652 ft 173 kts 66°
2026-05-01 11:08 39.45244 2.51046 3517 ft 158 kts 73°
2026-05-01 11:08 39.46287 2.53296 3143 ft 140 kts 60°
2026-05-01 11:09 39.46786 2.54362 2950 ft 139 kts 60°
2026-05-01 11:09 39.47291 2.55431 2774 ft 139 kts 60°
2026-05-01 11:09 39.47797 2.56497 2594 ft 138 kts 60°
2026-05-01 11:10 39.48803 2.58616 2225 ft 138 kts 60°
2026-05-01 11:10 39.49305 2.59671 2044 ft 137 kts 60°
2026-05-01 11:10 39.49806 2.60725 1856 ft 138 kts 60°
2026-05-01 11:10 39.50308 2.61781 1672 ft 138 kts 60°
2026-05-01 11:11 39.50811 2.62842 1489 ft 139 kts 61°
2026-05-01 11:11 39.51317 2.63907 1308 ft 139 kts 60°
2026-05-01 11:11 39.51827 2.64981 1120 ft 141 kts 60°
2026-05-01 11:11 39.52336 2.66055 939 ft 140 kts 61°
2026-05-01 11:12 39.52840 2.67117 762 ft 140 kts 61°
2026-05-01 11:12 39.53348 2.68186 589 ft 138 kts 61°
2026-05-01 11:12 39.53846 2.69239 379 ft 142 kts 59°
2026-05-01 11:12 39.54354 2.70309 215 ft 137 kts 59°
2026-05-01 11:13 39.54866 2.71363 49 ft 136 kts 61°
2026-05-01 11:13 39.55341 2.72375 33 ft 128 kts 61°
2026-05-01 11:13 39.55737 2.73254 29 ft 67 kts 58°
2026-05-01 11:13 39.55890 2.73554 30 ft 30 kts 57°
2026-05-01 11:14 39.55937 2.73649 30 ft 4 kts 57°
2026-05-01 11:14 39.55993 2.73778 30 ft 25 kts 78°
2026-05-01 11:14 39.55933 2.73868 30 ft 9 kts 148°
2026-05-01 11:14 39.55931 2.73870 30 ft 0 kts 148°
2026-05-01 11:15 39.55918 2.73880 30 ft 9 kts 148°
2026-05-01 11:15 39.55841 2.73898 30 ft 10 kts 222°
2026-05-01 11:16 39.55787 2.73772 30 ft 24 kts 241°
2026-05-01 11:16 39.55707 2.73607 30 ft 25 kts 237°
2026-05-01 11:16 39.55638 2.73523 30 ft 17 kts 196°
2026-05-01 11:16 39.55555 2.73559 30 ft 18 kts 147°
2026-05-01 11:17 39.55467 2.73631 30 ft 27 kts 149°
2026-05-01 11:17 39.55204 2.73820 30 ft 23 kts 170°
2026-05-01 11:17 39.55152 2.73768 30 ft 11 kts 191°
2026-05-01 11:17 39.55108 2.73801 30 ft 15 kts 141°
2026-05-01 11:18 39.54981 2.73898 30 ft 15 kts 150°
2026-05-01 11:18 39.54923 2.73895 30 ft 4 kts 239°
2026-05-01 11:18 39.54913 2.73869 30 ft 6 kts 245°
2026-05-01 11:18 39.54895 2.73818 30 ft 6 kts 249°
2026-05-01 11:19 39.54894 2.73810 30 ft 0 kts 252°